BAW29G KBOS-EGLL

Flight info

Callsign BAW29G
Flight time N/A
Altitude 37000
Route LBSTA8 LBSTA DCT ALLEX N535B UMESI/M083F380 NATU OLGON/N0473F390 DCT ENJEX DCT AVZAC DCT INFEC DCT JETZI DCT AMFUL DCT ORZEB/N0376F230 P2 SIRIC
Aircraft B77W/H-SDE1E2E3FGHIJ2J3J4J5M1RWXY/LB1D1

Departure

Time 2026-05-08 01:43
Airport Boston Logan International Airport (KBOS)

Arrival

Time N/A
Airport London Heathrow Airport (EGLL)
Time Latitude Longitude Altitude Speed Heading
2026-05-08 01:05 42.37143 -71.02087 30 ft 0 kts 177°
2026-05-08 01:25 42.37164 -71.02089 29 ft 4 kts 177°
2026-05-08 01:26 42.37191 -71.02091 29 ft 4 kts 177°
2026-05-08 01:26 42.37213 -71.02093 29 ft 4 kts 156°
2026-05-08 01:26 42.37231 -71.02114 28 ft 4 kts 107°
2026-05-08 01:26 42.37230 -71.02144 26 ft 4 kts 45°
2026-05-08 01:27 42.37211 -71.02169 27 ft 4 kts 43°
2026-05-08 01:27 42.37203 -71.02178 28 ft 0 kts 43°
2026-05-08 01:29 42.37204 -71.02178 28 ft 1 kts 43°
2026-05-08 01:29 42.37230 -71.02135 26 ft 7 kts 63°
2026-05-08 01:29 42.37238 -71.02067 30 ft 7 kts 90°
2026-05-08 01:30 42.37232 -71.01998 30 ft 7 kts 99°
2026-05-08 01:30 42.37213 -71.01932 30 ft 8 kts 122°
2026-05-08 01:30 42.37183 -71.01874 30 ft 8 kts 125°
2026-05-08 01:30 42.37145 -71.01798 30 ft 11 kts 121°
2026-05-08 01:31 42.37139 -71.01695 30 ft 11 kts 77°
2026-05-08 01:31 42.37121 -71.01594 30 ft 12 kts 127°
2026-05-08 01:31 42.37065 -71.01516 30 ft 12 kts 135°
2026-05-08 01:31 42.37008 -71.01439 30 ft 12 kts 135°
2026-05-08 01:32 42.36952 -71.01364 30 ft 12 kts 135°
2026-05-08 01:32 42.36887 -71.01276 30 ft 14 kts 135°
2026-05-08 01:32 42.36819 -71.01185 30 ft 14 kts 135°
2026-05-08 01:32 42.36734 -71.01143 30 ft 14 kts 188°
2026-05-08 01:33 42.36644 -71.01185 30 ft 14 kts 200°
2026-05-08 01:33 42.36553 -71.01230 30 ft 14 kts 200°
2026-05-08 01:33 42.36464 -71.01273 30 ft 14 kts 199°
2026-05-08 01:33 42.36373 -71.01316 30 ft 14 kts 198°
2026-05-08 01:34 42.36311 -71.01263 30 ft 11 kts 122°
2026-05-08 01:34 42.36273 -71.01173 30 ft 11 kts 120°
2026-05-08 01:34 42.36260 -71.01144 30 ft 11 kts 120°
2026-05-08 01:35 42.36171 -71.00872 30 ft 12 kts 114°
2026-05-08 01:35 42.36136 -71.00768 30 ft 12 kts 114°
2026-05-08 01:35 42.36107 -71.00664 31 ft 12 kts 109°
2026-05-08 01:35 42.36079 -71.00553 30 ft 13 kts 109°
2026-05-08 01:36 42.36050 -71.00439 30 ft 13 kts 109°
2026-05-08 01:36 42.36020 -71.00325 30 ft 13 kts 109°
2026-05-08 01:36 42.35991 -71.00213 30 ft 13 kts 109°
2026-05-08 01:36 42.35957 -71.00102 30 ft 13 kts 119°
2026-05-08 01:37 42.35901 -71.00009 30 ft 13 kts 135°
2026-05-08 01:37 42.35838 -70.99924 30 ft 13 kts 135°
2026-05-08 01:37 42.35774 -70.99840 30 ft 13 kts 135°
2026-05-08 01:37 42.35710 -70.99755 30 ft 13 kts 135°
2026-05-08 01:38 42.35647 -70.99670 30 ft 13 kts 135°
2026-05-08 01:38 42.35583 -70.99585 30 ft 13 kts 136°
2026-05-08 01:38 42.35522 -70.99503 30 ft 11 kts 135°
2026-05-08 01:38 42.35513 -70.99491 30 ft 0 kts 135°
2026-05-08 01:39 42.35490 -70.99453 30 ft 9 kts 118°
2026-05-08 01:39 42.35488 -70.99409 30 ft 0 kts 76°
2026-05-08 01:41 42.35488 -70.99408 30 ft 1 kts 76°
2026-05-08 01:41 42.35500 -70.99318 30 ft 9 kts 80°
2026-05-08 01:41 42.35537 -70.99266 30 ft 8 kts
2026-05-08 01:41 42.35555 -70.99282 30 ft 0 kts 314°
2026-05-08 01:42 42.35563 -70.99293 30 ft 10 kts 314°
2026-05-08 01:42 42.35731 -70.99522 30 ft 69 kts 315°
2026-05-08 01:43 42.36254 -71.00224 28 ft 141 kts 315°
2026-05-08 01:43 42.37060 -71.01284 293 ft 171 kts 315°
2026-05-08 01:43 42.37894 -71.02356 1060 ft 166 kts 314°
2026-05-08 01:43 42.38668 -71.03522 1690 ft 172 kts 303°
2026-05-08 01:44 42.39312 -71.04982 2009 ft 192 kts 299°
2026-05-08 01:44 42.40005 -71.06686 2284 ft 220 kts 299°
2026-05-08 01:44 42.40805 -71.08554 2829 ft 233 kts 302°
2026-05-08 01:44 42.41912 -71.10231 3426 ft 246 kts 326°
2026-05-08 01:45 42.43474 -71.11081 4134 ft 252 kts 343°
2026-05-08 01:45 42.45167 -71.11695 4789 ft 252 kts 339°
2026-05-08 01:45 42.46804 -71.12608 5008 ft 260 kts 334°
2026-05-08 01:45 42.48460 -71.13610 5264 ft 260 kts 335°
2026-05-08 01:46 42.50209 -71.14219 5956 ft 264 kts 360°
2026-05-08 01:46 42.51953 -71.13428 6734 ft 273 kts 34°
2026-05-08 01:46 42.53228 -71.11480 7452 ft 280 kts 53°
2026-05-08 01:46 42.54355 -71.09268 7986 ft 290 kts 51°
2026-05-08 01:47 42.55562 -71.07053 8786 ft 294 kts 50°
2026-05-08 01:47 42.56790 -71.04809 9580 ft 299 kts 50°
2026-05-08 01:47 42.58035 -71.02514 10243 ft 307 kts 51°
2026-05-08 01:48 42.60757 -70.97475 10763 ft 357 kts 51°
2026-05-08 01:48 42.62270 -70.94657 11106 ft 379 kts 51°
2026-05-08 01:48 42.63846 -70.91712 11758 ft 391 kts 52°
2026-05-08 01:48 42.65464 -70.88682 12612 ft 400 kts 52°
2026-05-08 01:49 42.67113 -70.85591 13392 ft 411 kts 52°
2026-05-08 01:49 42.68811 -70.82408 14145 ft 421 kts 52°
2026-05-08 01:49 42.70547 -70.79150 14896 ft 430 kts 52°
2026-05-08 01:49 42.72323 -70.75815 15640 ft 440 kts 52°
2026-05-08 01:50 42.74135 -70.72408 16378 ft 449 kts 53°
2026-05-08 01:50 42.75972 -70.68951 17099 ft 459 kts 53°
2026-05-08 01:50 42.77859 -70.65397 17938 ft 467 kts 53°
2026-05-08 01:50 42.79742 -70.61846 18631 ft 474 kts 53°
2026-05-08 01:51 42.81657 -70.58142 19348 ft 480 kts 55°
2026-05-08 01:51 42.83499 -70.54326 20072 ft 486 kts 57°
2026-05-08 01:51 42.85328 -70.50406 20722 ft 493 kts 57°
2026-05-08 01:51 42.87143 -70.46479 21417 ft 499 kts 58°
2026-05-08 01:52 42.89028 -70.42407 22139 ft 504 kts 57°
2026-05-08 01:52 42.90893 -70.38399 22888 ft 510 kts 57°
2026-05-08 01:52 42.92812 -70.34300 23503 ft 516 kts 57°
2026-05-08 01:52 42.94760 -70.30152 24053 ft 522 kts 57°
2026-05-08 01:53 42.96728 -70.25966 24636 ft 526 kts 57°
2026-05-08 01:53 42.98712 -70.21747 25213 ft 530 kts 57°
2026-05-08 01:53 43.00711 -70.17490 25758 ft 534 kts 57°
2026-05-08 01:53 43.02718 -70.13210 26333 ft 537 kts 57°
2026-05-08 01:54 43.04740 -70.08889 26863 ft 542 kts 57°
2026-05-08 01:54 43.06775 -70.04532 27384 ft 546 kts 57°
2026-05-08 01:54 43.08828 -70.00132 27884 ft 551 kts 57°
2026-05-08 01:54 43.10894 -69.95694 28370 ft 555 kts 57°
2026-05-08 01:55 43.12972 -69.91224 28871 ft 559 kts 57°
2026-05-08 01:55 43.15066 -69.86711 29324 ft 563 kts 56°
2026-05-08 01:55 43.17173 -69.82165 29763 ft 565 kts 57°
2026-05-08 01:55 43.19281 -69.77610 30203 ft 568 kts 57°
2026-05-08 01:56 43.21395 -69.73032 30625 ft 569 kts 57°
2026-05-08 01:56 43.23510 -69.68447 31104 ft 568 kts 57°
2026-05-08 01:56 43.25618 -69.63868 31614 ft 567 kts 57°
2026-05-08 01:56 43.27719 -69.59300 32122 ft 566 kts 57°
2026-05-08 01:57 43.29815 -69.54733 32581 ft 565 kts 57°
2026-05-08 01:57 43.31906 -69.50173 33038 ft 565 kts 57°
2026-05-08 01:57 43.33971 -69.45661 33511 ft 564 kts 57°
2026-05-08 01:57 43.36054 -69.41104 33948 ft 563 kts 57°
2026-05-08 01:58 43.38133 -69.36549 34281 ft 563 kts 58°
2026-05-08 01:58 43.40243 -69.31916 34531 ft 565 kts 58°
2026-05-08 01:58 43.42301 -69.27392 34793 ft 566 kts 58°
2026-05-08 01:58 43.44418 -69.22729 35085 ft 567 kts 58°
2026-05-08 01:59 43.46508 -69.18122 35421 ft 568 kts 58°
2026-05-08 01:59 43.48571 -69.13565 35735 ft 568 kts 58°
2026-05-08 01:59 43.50657 -69.08950 36023 ft 569 kts 58°
2026-05-08 01:59 43.52748 -69.04315 36288 ft 570 kts 58°
2026-05-08 02:00 43.54161 -69.01181 36467 ft 570 kts 58°
2026-05-08 02:00 43.56930 -68.95026 36747 ft 573 kts 58°
2026-05-08 02:00 43.61148 -68.85629 36834 ft 576 kts 58°
2026-05-08 02:01 43.65336 -68.76268 36794 ft 569 kts 58°
2026-05-08 02:01 43.69479 -68.66976 36797 ft 568 kts 59°
2026-05-08 02:02 43.72919 -68.59238 36839 ft 570 kts 59°
2026-05-08 02:02 43.79292 -68.44848 36809 ft 573 kts 59°
2026-05-08 02:03 43.87675 -68.25813 36824 ft 576 kts 59°
2026-05-08 02:03 43.95954 -68.06888 36757 ft 578 kts 60°
2026-05-08 02:04 44.04268 -67.87756 36785 ft 578 kts 60°
2026-05-08 02:04 44.12541 -67.68593 36787 ft 578 kts 60°
2026-05-08 02:05 44.20789 -67.49359 36713 ft 577 kts 61°
2026-05-08 02:05 44.28977 -67.30138 36799 ft 575 kts 62°
2026-05-08 02:06 44.37118 -67.10891 36794 ft 576 kts 62°
2026-05-08 02:06 44.45956 -66.92232 36755 ft 578 kts 51°
2026-05-08 02:07 44.56080 -66.74740 36735 ft 578 kts 52°
2026-05-08 02:07 44.66078 -66.57030 36735 ft 580 kts 53°
2026-05-08 02:08 44.76085 -66.39176 36734 ft 582 kts 53°
2026-05-08 02:08 44.86098 -66.21223 36756 ft 584 kts 53°
2026-05-08 02:09 44.96131 -66.03114 36741 ft 586 kts 53°
2026-05-08 02:09 45.06155 -65.84907 36741 ft 588 kts 54°
2026-05-08 02:10 45.16029 -65.66859 36733 ft 588 kts 54°
2026-05-08 02:10 45.26006 -65.48504 36727 ft 587 kts 54°
2026-05-08 02:11 45.35953 -65.30085 36723 ft 587 kts 54°
2026-05-08 02:11 45.45861 -65.11620 36687 ft 586 kts 55°
2026-05-08 02:12 45.55675 -64.93209 36730 ft 588 kts 55°
2026-05-08 02:12 45.65584 -64.74498 36724 ft 591 kts 55°
2026-05-08 02:13 45.75492 -64.55667 36733 ft 593 kts 55°
2026-05-08 02:13 45.85358 -64.36788 36701 ft 595 kts 55°
2026-05-08 02:14 45.95253 -64.17727 36693 ft 595 kts 56°
2026-05-08 02:14 46.05139 -63.98549 36703 ft 597 kts 56°
2026-05-08 02:15 46.15016 -63.79260 36705 ft 599 kts 56°
2026-05-08 02:15 46.24891 -63.59843 36707 ft 601 kts 56°
2026-05-08 02:16 46.34757 -63.40306 36673 ft 602 kts 56°
2026-05-08 02:16 46.44602 -63.20675 36716 ft 603 kts 56°
2026-05-08 02:17 46.54433 -63.00933 36710 ft 604 kts 56°
2026-05-08 02:17 46.64258 -62.81063 36725 ft 605 kts 56°
2026-05-08 02:18 46.74050 -62.61117 36706 ft 605 kts 56°
2026-05-08 02:18 46.83799 -62.41115 36709 ft 605 kts 56°
2026-05-08 02:19 46.93522 -62.21021 36721 ft 606 kts 56°
2026-05-08 02:19 47.03222 -62.00830 36719 ft 606 kts 56°
2026-05-08 02:20 47.12887 -61.80563 36715 ft 606 kts 56°
2026-05-08 02:20 47.22520 -61.60220 36631 ft 605 kts 56°
2026-05-08 02:21 47.32086 -61.39862 36725 ft 603 kts 56°
2026-05-08 02:21 47.41606 -61.19454 36729 ft 604 kts 56°
2026-05-08 02:22 47.51101 -60.98947 36728 ft 604 kts 57°
2026-05-08 02:22 47.60573 -60.78335 36694 ft 605 kts 57°
2026-05-08 02:23 47.70001 -60.57666 36654 ft 605 kts 56°
2026-05-08 02:23 47.79386 -60.36933 36712 ft 605 kts 57°
2026-05-08 02:24 47.88757 -60.16075 36701 ft 607 kts 57°
2026-05-08 02:24 47.98041 -59.95249 36711 ft 607 kts 57°
2026-05-08 02:25 48.07343 -59.74224 36692 ft 606 kts 57°
2026-05-08 02:25 48.16573 -59.53197 36625 ft 603 kts 57°
2026-05-08 02:26 48.25719 -59.32201 36700 ft 600 kts 57°
2026-05-08 02:26 48.34806 -59.11178 36665 ft 600 kts 57°
2026-05-08 02:27 48.43839 -58.90116 36690 ft 597 kts 57°
2026-05-08 02:27 48.52801 -58.69055 36672 ft 596 kts 57°
2026-05-08 02:28 48.61686 -58.48010 36638 ft 593 kts 57°
2026-05-08 02:28 48.70509 -58.26950 36664 ft 592 kts 57°
2026-05-08 02:29 48.79276 -58.05859 36683 ft 590 kts 57°
2026-05-08 02:29 48.87984 -57.84741 36682 ft 590 kts 58°
2026-05-08 02:30 48.96649 -57.63563 36673 ft 590 kts 58°
2026-05-08 02:30 49.05286 -57.42281 36604 ft 590 kts 58°
2026-05-08 02:31 49.13863 -57.20981 36685 ft 590 kts 58°
2026-05-08 02:31 49.22425 -56.99543 36703 ft 591 kts 58°
2026-05-08 02:32 49.30957 -56.78005 36707 ft 592 kts 58°
2026-05-08 02:32 49.39454 -56.56382 36691 ft 590 kts 59°
2026-05-08 02:33 49.47863 -56.34806 36709 ft 586 kts 59°
2026-05-08 02:33 49.56172 -56.13311 36704 ft 583 kts 59°
2026-05-08 02:34 49.64382 -55.91896 36728 ft 578 kts 59°
2026-05-08 02:34 49.72503 -55.70542 36723 ft 575 kts 60°
2026-05-08 02:35 49.80527 -55.49269 36720 ft 570 kts 60°
2026-05-08 02:35 49.88445 -55.28108 36764 ft 565 kts 62°
2026-05-08 02:36 49.96260 -55.07046 36709 ft 561 kts 61°
2026-05-08 02:36 50.03922 -54.86232 36787 ft 557 kts 62°
2026-05-08 02:37 50.11556 -54.65325 36770 ft 554 kts 62°
2026-05-08 02:37 50.19107 -54.44478 36787 ft 550 kts 63°
2026-05-08 02:38 50.26587 -54.23656 36793 ft 549 kts 63°
2026-05-08 02:38 50.34003 -54.02848 36758 ft 548 kts 62°
2026-05-08 02:39 50.41447 -53.81781 36834 ft 558 kts 63°
2026-05-08 02:39 50.48939 -53.60413 36816 ft 557 kts 63°
2026-05-08 02:40 50.56288 -53.39276 36828 ft 546 kts 63°
2026-05-08 02:40 50.63476 -53.18423 36851 ft 539 kts 64°
2026-05-08 02:41 50.70584 -52.97631 36883 ft 541 kts 64°
2026-05-08 02:41 50.77756 -52.76474 36893 ft 549 kts 63°
2026-05-08 02:42 50.84780 -52.54879 36899 ft 554 kts 69°
2026-05-08 02:42 50.90737 -52.32474 36894 ft 548 kts 69°
2026-05-08 02:43 50.96619 -52.10402 36901 ft 540 kts 69°
2026-05-08 02:43 51.02397 -51.88573 36928 ft 534 kts 69°
2026-05-08 02:44 51.08102 -51.66785 36927 ft 537 kts 69°
2026-05-08 02:44 51.13792 -51.44853 36945 ft 534 kts 69°
2026-05-08 02:45 51.19408 -51.22996 36949 ft 531 kts 69°
2026-05-08 02:45 51.24007 -51.04933 36986 ft 528 kts 69°
2026-05-08 02:46 51.29480 -50.83249 37005 ft 525 kts 69°
2026-05-08 02:46 51.34878 -50.61653 37020 ft 521 kts 69°
2026-05-08 02:47 51.40194 -50.40178 37018 ft 518 kts 69°
2026-05-08 02:47 51.45447 -50.18748 37059 ft 515 kts 70°
2026-05-08 02:48 51.50643 -49.97373 37042 ft 513 kts 69°
2026-05-08 02:48 51.55984 -49.76167 37069 ft 511 kts 69°
2026-05-08 02:49 51.61277 -49.54987 37063 ft 510 kts 69°
2026-05-08 02:49 51.66504 -49.33791 37120 ft 509 kts 70°
2026-05-08 02:50 51.71695 -49.12544 37101 ft 509 kts 70°
2026-05-08 02:50 51.76843 -48.91271 37121 ft 509 kts 70°
2026-05-08 02:51 51.81917 -48.70095 37124 ft 509 kts 70°
2026-05-08 02:51 51.87017 -48.48602 37117 ft 508 kts 70°
2026-05-08 02:52 51.92005 -48.27369 37153 ft 507 kts 70°
2026-05-08 02:52 51.96980 -48.05984 37159 ft 507 kts 70°
2026-05-08 02:53 52.01912 -47.84566 37161 ft 507 kts 70°
2026-05-08 02:53 52.06806 -47.63098 37173 ft 507 kts 70°
2026-05-08 02:54 52.11663 -47.41574 37174 ft 507 kts 70°
2026-05-08 02:54 52.16479 -47.20014 37181 ft 506 kts 70°
2026-05-08 02:55 52.23607 -46.87680 37191 ft 505 kts 70°
2026-05-08 02:56 52.28301 -46.66114 37187 ft 504 kts 70°
2026-05-08 02:56 52.32953 -46.44509 37202 ft 503 kts 70°
2026-05-08 02:57 52.37557 -46.22900 37190 ft 503 kts 70°
2026-05-08 02:57 52.42113 -46.01287 37202 ft 502 kts 70°
2026-05-08 02:58 52.46623 -45.79660 37207 ft 502 kts 70°
2026-05-08 02:58 52.51100 -45.57960 37213 ft 502 kts 70°
2026-05-08 02:59 52.55543 -45.36184 37213 ft 504 kts 70°
2026-05-08 02:59 52.59968 -45.14261 37225 ft 505 kts 70°
2026-05-08 03:00 52.64359 -44.92253 37226 ft 507 kts 71°
2026-05-08 03:00 52.68722 -44.70140 37234 ft 508 kts 71°
2026-05-08 03:01 52.73047 -44.47959 37246 ft 508 kts 71°
2026-05-08 03:01 52.77339 -44.25702 37238 ft 509 kts 71°
2026-05-08 03:02 52.81569 -44.03503 37247 ft 510 kts 71°
2026-05-08 03:02 52.85790 -43.81081 37246 ft 511 kts 71°
2026-05-08 03:03 52.89982 -43.58549 37266 ft 513 kts 72°
2026-05-08 03:03 52.94144 -43.35905 37265 ft 515 kts 72°
2026-05-08 03:04 52.98281 -43.13119 37274 ft 516 kts 72°
2026-05-08 03:04 53.02378 -42.90260 37281 ft 517 kts 72°
2026-05-08 03:05 53.06440 -42.67314 37287 ft 517 kts 72°
2026-05-08 03:05 53.10455 -42.44338 37292 ft 517 kts 72°
2026-05-08 03:06 53.14427 -42.21323 37302 ft 517 kts 72°
2026-05-08 03:06 53.18356 -41.98241 37301 ft 518 kts 72°
2026-05-08 03:07 53.22239 -41.75134 37303 ft 518 kts 72°
2026-05-08 03:07 53.26080 -41.51967 37302 ft 517 kts 72°
2026-05-08 03:08 53.29863 -41.28835 37306 ft 516 kts 72°
2026-05-08 03:08 53.33603 -41.05653 37321 ft 516 kts 72°
2026-05-08 03:09 53.37295 -40.82451 37342 ft 516 kts 72°
2026-05-08 03:09 53.40941 -40.59215 37322 ft 516 kts 72°
2026-05-08 03:10 53.44539 -40.35953 37328 ft 515 kts 72°
2026-05-08 03:10 53.48071 -40.12791 37341 ft 515 kts 72°
2026-05-08 03:11 53.51535 -39.89531 37340 ft 515 kts 72°